Location: UBC Liquid-Mirror Observatory
(49.2876°N, 122.5728°W)
Time: 15:38:47
(UTC-07:00)

KITSAT 1 - Visible Passes

Search period start: 27 April 2017 00:00
Search period end: 07 May 2017 00:00
Orbit: 1310 x 1320 km, 66.1° (Epoch: 26 April)

Date Brightness Start Highest point End Pass type
(mag) Time Alt. Az. Time Alt. Az. Time Alt. Az.
27 Apr 11.0 00:14:56 10° NW 00:22:45 47° NE 00:28:52 17° ESE visible
27 Apr 10.2 02:10:31 10° NW 02:18:27 60° WSW 02:20:47 45° S visible
27 Apr 11.7 04:08:47 10° WNW 04:12:08 13° W 04:12:43 13° WSW visible
27 Apr 11.8 22:35:08 10° NW 22:41:54 28° NNE 22:48:41 10° ENE visible
28 Apr 10.6 00:31:03 10° NW 00:39:05 60° NE 00:43:55 26° ESE visible
28 Apr 10.6 02:26:48 10° NW 02:34:18 43° WSW 02:35:51 39° SW visible
28 Apr 12.2 20:54:03 10° WNW 21:00:24 24° N 21:06:46 10° NE visible
28 Apr 11.6 22:51:29 10° NW 22:58:36 32° NNE 23:05:42 10° E visible
29 Apr 10.3 00:47:09 10° NW 00:55:19 78° NE 00:59:03 36° SE visible
29 Apr 11.0 02:43:15 10° NW 02:50:02 31° WSW 02:51:00 30° WSW visible
29 Apr 12.1 21:10:53 10° NW 21:17:14 24° N 21:23:34 10° NE visible
29 Apr 11.3 23:07:42 10° NW 23:15:11 38° NNE 23:22:19 11° E visible
30 Apr 10.1 01:03:16 10° NW 01:11:25 82° WSW 01:14:16 46° SSE visible
30 Apr 11.4 03:00:01 10° WNW 03:05:39 21° WSW 03:06:12 21° WSW visible
30 Apr 12.0 21:27:33 10° NW 21:34:02 25° N 21:40:31 10° ENE visible
30 Apr 11.0 23:23:52 10° NW 23:31:39 47° NE 23:37:35 18° ESE visible
01 May 10.3 01:19:27 10° NW 01:27:24 61° WSW 01:29:31 47° S visible
01 May 11.8 03:17:32 10° WNW 03:21:08 14° W 03:21:28 14° W visible
01 May 11.8 21:44:03 10° NW 21:50:48 28° NNE 21:57:33 10° ENE visible
01 May 10.6 23:40:00 10° NW 23:48:01 59° NE 23:52:53 26° ESE visible
02 May 10.6 01:35:43 10° NW 01:43:16 44° WSW 01:44:50 40° SW visible
02 May 11.6 22:00:25 10° NW 22:07:30 31° NNE 22:14:33 10° E visible
02 May 10.3 23:56:05 10° NW 00:04:15 76° NE 00:08:15 34° SE visible
03 May 11.0 01:52:09 10° NW 01:59:00 31° WSW 02:00:12 30° WSW visible
03 May 11.3 22:16:39 10° NW 22:24:05 37° NNE 22:31:30 10° E visible
04 May 10.1 00:12:12 10° NW 00:20:21 83° WSW 00:23:38 41° SSE visible
04 May 11.4 02:08:53 10° WNW 02:14:38 22° WSW 02:15:36 21° WSW visible
04 May 11.0 22:32:48 10° NW 22:40:34 46° NE 22:47:07 15° ESE visible
05 May 10.3 00:28:23 10° NW 00:36:21 62° WSW 00:39:05 42° S visible
05 May 11.8 02:26:18 10° WNW 02:30:08 14° W 02:31:03 14° WSW visible
05 May 10.6 22:48:56 10° NW 22:56:56 58° NE 23:02:36 21° ESE visible
06 May 10.7 00:44:38 10° NW 00:52:13 45° WSW 00:54:34 37° SSW visible
06 May 11.5 21:09:20 10° NW 21:16:23 31° NNE 21:23:26 10° E visible
06 May 10.3 23:05:01 10° NW 23:13:10 75° NE 23:18:05 27° SE visible
